Time,TemperatureF,DewpointF,PressureIn,WindDirection,WindDirectionDegrees,WindSpeedMPH,WindSpeedGustMPH,Humidity,HourlyPrecipIn,Conditions,Clouds,dailyrainin,SoftwareType,DateUTC
2013-01-10 00:00:00,43.0,26.1,30.02,West,264,6.0,8.0,51,0.00,,,0.00,Wunderground v.1.15,2013-01-10 05:00:00,
2013-01-10 00:01:00,43.0,26.1,30.02,WSW,253,3.0,8.0,51,0.00,,,0.00,Wunderground v.1.15,2013-01-10 05:01:00,
2013-01-10 00:04:00,43.0,26.1,30.01,WSW,256,4.0,8.0,51,0.00,,,0.00,Wunderground v.1.15,2013-01-10 05:04:00,
2013-01-10 00:09:00,43.0,26.1,30.02,West,269,8.0,8.0,51,0.00,,,0.00,Wunderground v.1.15,2013-01-10 05:09:00,
2013-01-10 00:15:00,43.4,26.5,30.02,West,259,6.0,20.0,51,0.00,,,0.00,Wunderground v.1.15,2013-01-10 05:15:00,
2013-01-10 00:21:00,43.2,26.3,30.01,West,269,5.0,10.0,51,0.00,,,0.00,Wunderground v.1.15,2013-01-10 05:21:00,
2013-01-10 00:26:00,43.3,26.4,30.01,West,259,9.0,17.0,51,0.00,,,0.00,Wunderground v.1.15,2013-01-10 05:26:00,
2013-01-10 00:32:00,43.2,26.7,30.01,West,266,15.0,15.0,52,0.00,,,0.00,Wunderground v.1.15,2013-01-10 05:32:00,
2013-01-10 00:38:00,43.1,27.1,30.01,WSW,248,5.0,15.0,53,0.00,,,0.00,Wunderground v.1.15,2013-01-10 05:38:00,
2013-01-10 00:43:00,42.9,26.9,30.01,SSW,204,3.0,8.0,53,0.00,,,0.00,Wunderground v.1.15,2013-01-10 05:43:00,
2013-01-10 00:50:00,42.9,26.9,30.01,WSW,239,11.0,11.0,53,0.00,,,0.00,Wunderground v.1.15,2013-01-10 05:50:00,
2013-01-10 00:55:00,43.0,27.0,30.02,West,274,9.0,12.0,53,0.00,,,0.00,Wunderground v.1.15,2013-01-10 05:55:00,
2013-01-10 01:01:00,43.0,27.0,30.01,West,266,13.0,13.0,53,0.00,,,0.00,Wunderground v.1.15,2013-01-10 06:01:00,
2013-01-10 01:07:00,43.0,27.0,30.01,WSW,245,13.0,13.0,53,0.00,,,0.00,Wunderground v.1.15,2013-01-10 06:07:00,
2013-01-10 01:13:00,43.3,27.3,30.02,West,265,9.0,19.0,53,0.00,,,0.00,Wunderground v.1.15,2013-01-10 06:13:00,
2013-01-10 01:19:00,43.4,27.0,30.02,WSW,240,9.0,21.0,52,0.00,,,0.00,weatherlink.com 1.10,2013-01-10 06:19:00,
2013-01-10 01:25:00,43.1,27.1,30.03,West,264,10.0,12.0,53,0.00,,,0.00,Wunderground v.1.15,2013-01-10 06:25:00,
2013-01-10 01:31:00,43.4,27.4,30.03,WSW,257,9.0,11.0,53,0.00,,,0.00,Wunderground v.1.15,2013-01-10 06:31:00,
2013-01-10 01:38:00,43.0,28.8,30.05,West,262,9.0,26.0,57,0.00,,,0.00,Wunderground v.1.15,2013-01-10 06:38:00,
2013-01-10 01:44:00,42.6,28.4,30.04,West,276,6.0,17.0,57,0.00,,,0.00,Wunderground v.1.15,2013-01-10 06:44:00,
2013-01-10 01:49:00,42.5,28.0,30.05,West,263,15.0,23.0,56,0.00,,,0.00,weatherlink.com 1.10,2013-01-10 06:49:00,
2013-01-10 01:55:00,42.2,28.0,30.05,West,260,15.0,20.0,57,0.00,,,0.00,Wunderground v.1.15,2013-01-10 06:55:00,
2013-01-10 02:01:00,41.7,28.4,30.06,West,260,14.0,15.0,59,0.00,,,0.00,Wunderground v.1.15,2013-01-10 07:01:00,
2013-01-10 02:06:00,41.5,28.6,30.06,WSW,257,10.0,19.0,60,0.00,,,0.00,Wunderground v.1.15,2013-01-10 07:06:00,
2013-01-10 02:11:00,41.3,28.9,30.06,West,259,8.0,13.0,61,0.00,,,0.00,Wunderground v.1.15,2013-01-10 07:11:00,
2013-01-10 02:16:00,41.0,28.6,30.07,WNW,292,7.0,20.0,61,0.00,,,0.00,Wunderground v.1.15,2013-01-10 07:16:00,
2013-01-10 02:21:00,40.9,28.5,30.07,West,277,15.0,19.0,61,0.00,,,0.00,Wunderground v.1.15,2013-01-10 07:21:00,
2013-01-10 02:26:00,40.8,28.4,30.07,WSW,245,12.0,19.0,61,0.00,,,0.00,Wunderground v.1.15,2013-01-10 07:26:00,
2013-01-10 02:31:00,40.6,28.6,30.08,West,275,17.0,18.0,62,0.00,,,0.00,Wunderground v.1.15,2013-01-10 07:31:00,
2013-01-10 02:36:00,40.6,28.6,30.09,WSW,257,10.0,21.0,62,0.00,,,0.00,Wunderground v.1.15,2013-01-10 07:36:00,
2013-01-10 02:41:00,40.6,28.2,30.09,West,265,13.0,13.0,61,0.00,,,0.00,Wunderground v.1.15,2013-01-10 07:41:00,
2013-01-10 02:46:00,40.4,28.4,30.09,WSW,252,13.0,17.0,62,0.00,,,0.00,Wunderground v.1.15,2013-01-10 07:46:00,
2013-01-10 02:51:00,40.4,28.4,30.10,WNW,294,7.0,11.0,62,0.00,,,0.00,Wunderground v.1.15,2013-01-10 07:51:00,
2013-01-10 02:56:00,40.2,28.2,30.10,West,281,11.0,12.0,62,0.00,,,0.00,Wunderground v.1.15,2013-01-10 07:56:00,
2013-01-10 03:01:00,40.1,28.1,30.10,West,263,10.0,13.0,62,0.00,,,0.00,Wunderground v.1.15,2013-01-10 08:01:00,
2013-01-10 03:06:00,40.1,28.1,30.10,SW,233,12.0,17.0,62,0.00,,,0.00,Wunderground v.1.15,2013-01-10 08:06:00,
2013-01-10 03:11:00,40.0,28.0,30.10,West,278,5.0,10.0,62,0.00,,,0.00,Wunderground v.1.15,2013-01-10 08:11:00,
2013-01-10 03:16:00,40.0,27.6,30.11,West,269,8.0,13.0,61,0.00,,,0.00,Wunderground v.1.15,2013-01-10 08:16:00,
2013-01-10 03:21:00,40.3,27.5,30.11,West,269,5.0,9.0,60,0.00,,,0.00,Wunderground v.1.15,2013-01-10 08:21:00,
2013-01-10 03:26:00,40.4,27.2,30.11,West,267,9.0,20.0,59,0.00,,,0.00,Wunderground v.1.15,2013-01-10 08:26:00,
2013-01-10 03:31:00,40.4,27.2,30.12,West,270,12.0,13.0,59,0.00,,,0.00,Wunderground v.1.15,2013-01-10 08:31:00,
2013-01-10 03:36:00,40.6,26.5,30.12,WSW,247,9.0,16.0,57,0.00,,,0.00,Wunderground v.1.15,2013-01-10 08:36:00,
2013-01-10 03:41:00,40.7,26.6,30.12,WNW,300,4.0,9.0,57,0.00,,,0.00,Wunderground v.1.15,2013-01-10 08:41:00,
2013-01-10 03:46:00,40.6,26.5,30.13,WSW,250,9.0,13.0,57,0.00,,,0.00,Wunderground v.1.15,2013-01-10 08:46:00,
2013-01-10 03:51:00,40.5,26.0,30.13,West,264,6.0,11.0,56,0.00,,,0.00,Wunderground v.1.15,2013-01-10 08:51:00,
2013-01-10 03:56:00,40.3,26.3,30.14,WSW,255,5.0,11.0,57,0.00,,,0.00,Wunderground v.1.15,2013-01-10 08:56:00,
2013-01-10 04:01:00,40.2,25.7,30.14,West,279,5.0,9.0,56,0.00,,,0.00,Wunderground v.1.15,2013-01-10 09:01:00,
2013-01-10 04:06:00,40.2,25.7,30.14,West,274,14.0,14.0,56,0.00,,,0.00,Wunderground v.1.15,2013-01-10 09:06:00,
2013-01-10 04:11:00,40.3,25.4,30.14,WNW,293,13.0,16.0,55,0.00,,,0.00,Wunderground v.1.15,2013-01-10 09:11:00,
2013-01-10 04:16:00,40.4,25.1,30.14,WNW,283,11.0,17.0,54,0.00,,,0.00,Wunderground v.1.15,2013-01-10 09:16:00,
2013-01-10 04:22:00,40.5,25.1,30.15,WSW,243,11.0,11.0,54,0.00,,,0.00,Wunderground v.1.15,2013-01-10 09:22:00,
2013-01-10 04:27:00,40.7,24.9,30.15,West,264,8.0,15.0,53,0.00,,,0.00,Wunderground v.1.15,2013-01-10 09:27:00,
2013-01-10 04:32:00,40.5,25.1,30.15,West,279,5.0,11.0,54,0.00,,,0.00,Wunderground v.1.15,2013-01-10 09:32:00,
2013-01-10 04:37:00,40.2,25.3,30.16,West,259,8.0,11.0,55,0.00,,,0.00,Wunderground v.1.15,2013-01-10 09:37:00,
2013-01-10 04:42:00,40.1,25.2,30.16,WNW,294,5.0,11.0,55,0.00,,,0.00,Wunderground v.1.15,2013-01-10 09:42:00,
2013-01-10 04:47:00,39.9,25.0,30.16,West,262,5.0,11.0,55,0.00,,,0.00,Wunderground v.1.15,2013-01-10 09:47:00,
2013-01-10 04:52:00,39.7,25.3,30.16,WNW,287,10.0,10.0,56,0.00,,,0.00,Wunderground v.1.15,2013-01-10 09:52:00,
2013-01-10 04:57:00,40.0,25.1,30.16,West,260,7.0,13.0,55,0.00,,,0.00,Wunderground v.1.15,2013-01-10 09:57:00,
2013-01-10 05:02:00,39.9,24.6,30.16,WNW,283,6.0,14.0,54,0.00,,,0.00,Wunderground v.1.15,2013-01-10 10:02:00,
2013-01-10 05:07:00,40.1,24.3,30.17,West,269,7.0,17.0,53,0.00,,,0.00,Wunderground v.1.15,2013-01-10 10:07:00,
2013-01-10 05:12:00,40.0,24.2,30.17,WNW,285,7.0,9.0,53,0.00,,,0.00,Wunderground v.1.15,2013-01-10 10:12:00,
2013-01-10 05:17:00,39.9,24.1,30.17,West,263,7.0,11.0,53,0.00,,,0.00,Wunderground v.1.15,2013-01-10 10:17:00,
2013-01-10 05:22:00,39.9,23.7,30.17,West,281,6.0,12.0,52,0.00,,,0.00,Wunderground v.1.15,2013-01-10 10:22:00,
2013-01-10 05:27:00,39.8,23.1,30.18,West,269,9.0,12.0,51,0.00,,,0.00,Wunderground v.1.15,2013-01-10 10:27:00,
2013-01-10 05:32:00,39.7,23.0,30.19,West,277,11.0,14.0,51,0.00,,,0.00,Wunderground v.1.15,2013-01-10 10:32:00,
2013-01-10 05:37:00,39.7,23.0,30.19,West,273,10.0,16.0,51,0.00,,,0.00,Wunderground v.1.15,2013-01-10 10:37:00,
2013-01-10 05:42:00,39.5,23.3,30.19,WSW,257,10.0,12.0,52,0.00,,,0.00,Wunderground v.1.15,2013-01-10 10:42:00,
2013-01-10 05:47:00,39.3,23.1,30.20,WSW,253,10.0,14.0,52,0.00,,,0.00,Wunderground v.1.15,2013-01-10 10:47:00,
2013-01-10 05:52:00,39.0,23.3,30.20,West,262,10.0,12.0,53,0.00,,,0.00,Wunderground v.1.15,2013-01-10 10:52:00,
2013-01-10 05:57:00,39.1,23.4,30.20,West,264,10.0,17.0,53,0.00,,,0.00,Wunderground v.1.15,2013-01-10 10:57:00,
2013-01-10 06:02:00,39.0,22.8,30.20,West,270,8.0,13.0,52,0.00,,,0.00,Wunderground v.1.15,2013-01-10 11:02:00,
2013-01-10 06:07:00,38.8,23.1,30.21,WSW,257,8.0,13.0,53,0.00,,,0.00,Wunderground v.1.15,2013-01-10 11:07:00,
2013-01-10 06:12:00,38.8,23.1,30.22,West,262,13.0,13.0,53,0.00,,,0.00,Wunderground v.1.15,2013-01-10 11:12:00,
2013-01-10 06:17:00,38.8,23.1,30.22,WNW,284,10.0,14.0,53,0.00,,,0.00,Wunderground v.1.15,2013-01-10 11:17:00,
2013-01-10 06:22:00,38.8,23.1,30.22,WNW,283,5.0,10.0,53,0.00,,,0.00,Wunderground v.1.15,2013-01-10 11:22:00,
2013-01-10 06:27:00,38.6,23.4,30.22,West,275,5.0,10.0,54,0.00,,,0.00,Wunderground v.1.15,2013-01-10 11:27:00,
2013-01-10 06:32:00,38.6,22.9,30.22,West,269,7.0,10.0,53,0.00,,,0.00,Wunderground v.1.15,2013-01-10 11:32:00,
2013-01-10 06:37:00,38.5,22.8,30.23,West,269,6.0,11.0,53,0.00,,,0.00,Wunderground v.1.15,2013-01-10 11:37:00,
2013-01-10 06:42:00,38.4,22.7,30.23,West,276,6.0,10.0,53,0.00,,,0.00,Wunderground v.1.15,2013-01-10 11:42:00,
2013-01-10 06:47:00,38.3,22.6,30.24,West,265,6.0,11.0,53,0.00,,,0.00,Wunderground v.1.15,2013-01-10 11:47:00,
2013-01-10 06:52:00,38.2,23.0,30.24,West,271,5.0,9.0,54,0.00,,,0.00,Wunderground v.1.15,2013-01-10 11:52:00,
2013-01-10 06:57:00,38.1,22.9,30.25,West,263,6.0,12.0,54,0.00,,,0.00,Wunderground v.1.15,2013-01-10 11:57:00,
2013-01-10 07:02:00,38.1,22.9,30.25,West,266,6.0,7.0,54,0.00,,,0.00,Wunderground v.1.15,2013-01-10 12:02:00,
2013-01-10 07:07:00,37.9,23.2,30.25,West,271,2.0,7.0,55,0.00,,,0.00,Wunderground v.1.15,2013-01-10 12:07:00,
2013-01-10 07:12:00,37.6,22.9,30.26,WSW,253,4.0,6.0,55,0.00,,,0.00,Wunderground v.1.15,2013-01-10 12:12:00,
2013-01-10 07:17:00,37.6,22.9,30.25,WNW,287,8.0,11.0,55,0.00,,,0.00,Wunderground v.1.15,2013-01-10 12:17:00,
2013-01-10 07:22:00,37.7,22.5,30.26,WNW,297,3.0,7.0,54,0.00,,,0.00,Wunderground v.1.15,2013-01-10 12:22:00,
2013-01-10 07:27:00,37.6,22.9,30.26,WNW,290,3.0,11.0,55,0.00,,,0.00,Wunderground v.1.15,2013-01-10 12:27:00,
2013-01-10 07:32:00,37.5,22.8,30.26,West,274,7.0,8.0,55,0.00,,,0.00,Wunderground v.1.15,2013-01-10 12:32:00,
2013-01-10 07:37:00,37.4,23.1,30.27,WNW,302,5.0,8.0,56,0.00,,,0.00,Wunderground v.1.15,2013-01-10 12:37:00,
2013-01-10 07:42:00,37.4,23.1,30.27,West,277,5.0,7.0,56,0.00,,,0.00,Wunderground v.1.15,2013-01-10 12:42:00,
2013-01-10 07:47:00,37.3,23.0,30.27,West,274,3.0,7.0,56,0.00,,,0.00,Wunderground v.1.15,2013-01-10 12:47:00,
2013-01-10 07:52:00,37.4,23.1,30.28,WSW,252,4.0,9.0,56,0.00,,,0.00,Wunderground v.1.15,2013-01-10 12:52:00,
2013-01-10 07:58:00,37.4,23.1,30.28,West,260,8.0,10.0,56,0.00,,,0.00,Wunderground v.1.15,2013-01-10 12:58:00,
2013-01-10 08:03:00,37.7,23.4,30.28,West,267,7.0,13.0,56,0.00,,,0.00,Wunderground v.1.15,2013-01-10 13:03:00,
2013-01-10 08:08:00,37.9,23.6,30.29,WSW,245,6.0,13.0,56,0.00,,,0.00,Wunderground v.1.15,2013-01-10 13:08:00,
2013-01-10 08:13:00,38.0,23.7,30.29,West,269,8.0,11.0,56,0.00,,,0.00,Wunderground v.1.15,2013-01-10 13:13:00,
2013-01-10 08:18:00,38.1,23.8,30.29,WNW,289,6.0,11.0,56,0.00,,,0.00,Wunderground v.1.15,2013-01-10 13:18:00,
2013-01-10 08:23:00,38.0,23.7,30.29,WSW,256,7.0,10.0,56,0.00,,,0.00,Wunderground v.1.15,2013-01-10 13:23:00,
2013-01-10 08:28:00,38.1,23.8,30.29,WNW,300,6.0,10.0,56,0.00,,,0.00,Wunderground v.1.15,2013-01-10 13:28:00,
2013-01-10 08:33:00,38.2,23.4,30.29,WSW,255,5.0,11.0,55,0.00,,,0.00,Wunderground v.1.15,2013-01-10 13:33:00,
2013-01-10 08:38:00,38.4,23.6,30.30,West,274,7.0,14.0,55,0.00,,,0.00,Wunderground v.1.15,2013-01-10 13:38:00,
2013-01-10 08:43:00,38.5,23.7,30.30,West,262,12.0,12.0,55,0.00,,,0.00,Wunderground v.1.15,2013-01-10 13:43:00,
2013-01-10 08:48:00,38.7,23.9,30.30,West,264,7.0,12.0,55,0.00,,,0.00,Wunderground v.1.15,2013-01-10 13:48:00,
2013-01-10 08:53:00,38.8,24.0,30.30,West,264,12.0,13.0,55,0.00,,,0.00,Wunderground v.1.15,2013-01-10 13:53:00,
2013-01-10 08:58:00,39.0,23.7,30.30,West,273,6.0,13.0,54,0.00,,,0.00,Wunderground v.1.15,2013-01-10 13:58:00,
2013-01-10 09:03:00,39.2,23.9,30.31,West,278,3.0,8.0,54,0.00,,,0.00,Wunderground v.1.15,2013-01-10 14:03:00,
2013-01-10 09:08:00,39.3,23.6,30.31,West,263,6.0,11.0,53,0.00,,,0.00,Wunderground v.1.15,2013-01-10 14:08:00,
2013-01-10 09:13:00,39.5,23.8,30.31,WSW,242,7.0,12.0,53,0.00,,,0.00,Wunderground v.1.15,2013-01-10 14:13:00,
2013-01-10 09:18:00,39.6,23.9,30.31,West,263,9.0,12.0,53,0.00,,,0.00,Wunderground v.1.15,2013-01-10 14:18:00,
2013-01-10 09:23:00,39.8,24.0,30.31,West,263,7.0,12.0,53,0.00,,,0.00,Wunderground v.1.15,2013-01-10 14:23:00,
2013-01-10 09:28:00,39.9,24.1,30.30,West,275,4.0,13.0,53,0.00,,,0.00,Wunderground v.1.15,2013-01-10 14:28:00,
2013-01-10 09:33:00,40.0,23.3,30.31,WNW,285,9.0,14.0,51,0.00,,,0.00,Wunderground v.1.15,2013-01-10 14:33:00,
2013-01-10 09:38:00,40.1,23.4,30.31,West,262,13.0,17.0,51,0.00,,,0.00,Wunderground v.1.15,2013-01-10 14:38:00,
2013-01-10 09:43:00,40.3,23.6,30.32,West,273,9.0,12.0,51,0.00,,,0.00,Wunderground v.1.15,2013-01-10 14:43:00,
2013-01-10 09:48:00,40.4,23.2,30.31,WNW,284,9.0,15.0,50,0.00,,,0.00,Wunderground v.1.15,2013-01-10 14:48:00,
2013-01-10 09:53:00,40.5,23.3,30.31,WNW,296,9.0,19.0,50,0.00,,,0.00,Wunderground v.1.15,2013-01-10 14:53:00,
2013-01-10 09:58:00,40.6,23.4,30.32,West,266,9.0,19.0,50,0.00,,,0.00,Wunderground v.1.15,2013-01-10 14:58:00,
2013-01-10 10:03:00,40.7,23.5,30.32,West,268,6.0,18.0,50,0.00,,,0.00,Wunderground v.1.15,2013-01-10 15:03:00,
2013-01-10 10:08:00,40.8,24.1,30.32,West,279,5.0,18.0,51,0.00,,,0.00,Wunderground v.1.15,2013-01-10 15:08:00,
2013-01-10 10:13:00,41.0,23.8,30.32,WNW,287,7.0,15.0,50,0.00,,,0.00,Wunderground v.1.15,2013-01-10 15:13:00,
2013-01-10 10:19:00,41.1,23.4,30.32,West,263,11.0,15.0,49,0.00,,,0.00,Wunderground v.1.15,2013-01-10 15:19:00,
2013-01-10 10:24:00,41.2,23.9,30.33,West,263,12.0,12.0,50,0.00,,,0.00,Wunderground v.1.15,2013-01-10 15:24:00,
2013-01-10 10:29:00,41.1,23.4,30.32,WSW,245,9.0,13.0,49,0.00,,,0.00,Wunderground v.1.15,2013-01-10 15:29:00,
2013-01-10 10:34:00,41.2,23.5,30.33,West,277,10.0,17.0,49,0.00,,,0.00,Wunderground v.1.15,2013-01-10 15:34:00,
2013-01-10 10:39:00,41.0,23.3,30.33,WSW,257,14.0,19.0,49,0.00,,,0.00,Wunderground v.1.15,2013-01-10 15:39:00,
2013-01-10 10:44:00,41.1,23.4,30.33,WSW,250,12.0,17.0,49,0.00,,,0.00,Wunderground v.1.15,2013-01-10 15:44:00,
2013-01-10 10:49:00,41.1,23.9,30.32,WNW,290,10.0,17.0,50,0.00,,,0.00,Wunderground v.1.15,2013-01-10 15:49:00,
2013-01-10 10:54:00,41.2,23.5,30.32,West,271,12.0,17.0,49,0.00,,,0.00,Wunderground v.1.15,2013-01-10 15:54:00,
2013-01-10 10:59:00,41.2,23.5,30.31,WSW,255,8.0,19.0,49,0.00,,,0.00,Wunderground v.1.15,2013-01-10 15:59:00,
2013-01-10 11:04:00,41.5,23.2,30.31,West,263,12.0,18.0,48,0.00,,,0.00,Wunderground v.1.15,2013-01-10 16:04:00,
2013-01-10 11:09:00,41.6,23.3,30.31,WSW,255,11.0,18.0,48,0.00,,,0.00,Wunderground v.1.15,2013-01-10 16:09:00,
2013-01-10 11:14:00,41.6,23.3,30.31,WNW,293,6.0,18.0,48,0.00,,,0.00,Wunderground v.1.15,2013-01-10 16:14:00,
2013-01-10 11:19:00,41.8,23.0,30.31,WNW,302,7.0,18.0,47,0.00,,,0.00,Wunderground v.1.15,2013-01-10 16:19:00,
2013-01-10 11:24:00,41.9,23.1,30.31,WNW,284,10.0,18.0,47,0.00,,,0.00,Wunderground v.1.15,2013-01-10 16:24:00,
2013-01-10 11:29:00,42.1,23.8,30.31,WSW,245,12.0,18.0,48,0.00,,,0.00,Wunderground v.1.15,2013-01-10 16:29:00,
2013-01-10 11:34:00,42.1,23.8,30.31,West,266,6.0,17.0,48,0.00,,,0.00,Wunderground v.1.15,2013-01-10 16:34:00,
2013-01-10 11:39:00,42.2,23.4,30.31,West,264,8.0,18.0,47,0.00,,,0.00,Wunderground v.1.15,2013-01-10 16:39:00,
2013-01-10 11:44:00,42.2,23.4,30.30,WNW,282,10.0,20.0,47,0.00,,,0.00,Wunderground v.1.15,2013-01-10 16:44:00,
2013-01-10 11:49:00,42.3,23.5,30.30,WNW,286,12.0,20.0,47,0.00,,,0.00,Wunderground v.1.15,2013-01-10 16:49:00,
2013-01-10 11:54:00,42.4,23.6,30.30,WNW,286,10.0,16.0,47,0.00,,,0.00,Wunderground v.1.15,2013-01-10 16:54:00,
2013-01-10 12:00:00,42.6,23.2,30.30,WSW,250,15.0,15.0,46,0.00,,,0.00,Wunderground v.1.15,2013-01-10 17:00:00,
2013-01-10 12:05:00,42.7,23.3,30.29,WNW,283,10.0,16.0,46,0.00,,,0.00,Wunderground v.1.15,2013-01-10 17:05:00,
2013-01-10 12:10:00,42.8,22.9,30.29,West,270,17.0,17.0,45,0.00,,,0.00,Wunderground v.1.15,2013-01-10 17:10:00,
2013-01-10 12:15:00,42.8,23.4,30.29,West,274,8.0,18.0,46,0.00,,,0.00,Wunderground v.1.15,2013-01-10 17:15:00,
2013-01-10 12:20:00,42.8,22.9,30.30,West,259,11.0,13.0,45,0.00,,,0.00,Wunderground v.1.15,2013-01-10 17:20:00,
2013-01-10 12:25:00,42.9,23.0,30.30,WSW,256,16.0,18.0,45,0.00,,,0.00,Wunderground v.1.15,2013-01-10 17:25:00,
2013-01-10 12:30:00,42.9,23.0,30.30,West,262,18.0,19.0,45,0.00,,,0.00,Wunderground v.1.15,2013-01-10 17:30:00,
2013-01-10 12:35:00,42.9,23.0,30.30,WNW,291,10.0,19.0,45,0.00,,,0.00,Wunderground v.1.15,2013-01-10 17:35:00,
2013-01-10 12:40:00,43.0,23.1,30.30,WNW,302,7.0,11.0,45,0.00,,,0.00,Wunderground v.1.15,2013-01-10 17:40:00,
2013-01-10 12:45:00,43.1,22.6,30.30,WNW,290,6.0,14.0,44,0.00,,,0.00,Wunderground v.1.15,2013-01-10 17:45:00,
2013-01-10 12:50:00,43.3,22.8,30.31,WNW,286,7.0,11.0,44,0.00,,,0.00,Wunderground v.1.15,2013-01-10 17:50:00,
2013-01-10 12:55:00,43.4,22.9,30.31,WSW,253,11.0,15.0,44,0.00,,,0.00,Wunderground v.1.15,2013-01-10 17:55:00,
2013-01-10 13:00:00,43.3,22.8,30.31,West,267,14.0,16.0,44,0.00,,,0.00,Wunderground v.1.15,2013-01-10 18:00:00,
2013-01-10 13:05:00,43.3,22.8,30.31,WNW,291,8.0,16.0,44,0.00,,,0.00,Wunderground v.1.15,2013-01-10 18:05:00,
2013-01-10 13:10:00,43.4,23.4,30.31,SW,235,8.0,10.0,45,0.00,,,0.00,Wunderground v.1.15,2013-01-10 18:10:00,
2013-01-10 13:15:00,43.5,23.5,30.31,WSW,253,5.0,12.0,45,0.00,,,0.00,Wunderground v.1.15,2013-01-10 18:15:00,
2013-01-10 13:20:00,43.7,23.2,30.32,WNW,286,9.0,10.0,44,0.00,,,0.00,Wunderground v.1.15,2013-01-10 18:20:00,
2013-01-10 13:25:00,43.7,23.2,30.32,WSW,257,16.0,16.0,44,0.00,,,0.00,Wunderground v.1.15,2013-01-10 18:25:00,
2013-01-10 13:30:00,43.4,23.4,30.32,West,269,7.0,11.0,45,0.00,,,0.00,Wunderground v.1.15,2013-01-10 18:30:00,
2013-01-10 13:35:00,43.5,23.0,30.32,West,278,12.0,21.0,44,0.00,,,0.00,Wunderground v.1.15,2013-01-10 18:35:00,
2013-01-10 13:40:00,43.5,23.5,30.32,West,263,9.0,10.0,45,0.00,,,0.00,Wunderground v.1.15,2013-01-10 18:40:00,
2013-01-10 13:45:00,43.5,23.5,30.33,WNW,290,9.0,12.0,45,0.00,,,0.00,Wunderground v.1.15,2013-01-10 18:45:00,
2013-01-10 13:50:00,43.5,24.1,30.33,West,267,7.0,10.0,46,0.00,,,0.00,Wunderground v.1.15,2013-01-10 18:50:00,
2013-01-10 13:55:00,43.6,23.6,30.33,SW,229,8.0,11.0,45,0.00,,,0.00,Wunderground v.1.15,2013-01-10 18:55:00,
2013-01-10 14:00:00,43.6,23.1,30.34,West,270,12.0,12.0,44,0.00,,,0.00,Wunderground v.1.15,2013-01-10 19:00:00,
2013-01-10 14:05:00,43.6,23.6,30.34,WNW,290,7.0,15.0,45,0.00,,,0.00,Wunderground v.1.15,2013-01-10 19:05:00,
2013-01-10 14:10:00,43.5,23.0,30.34,West,273,8.0,11.0,44,0.00,,,0.00,Wunderground v.1.15,2013-01-10 19:10:00,
2013-01-10 14:15:00,43.5,23.5,30.34,WSW,253,6.0,12.0,45,0.00,,,0.00,Wunderground v.1.15,2013-01-10 19:15:00,
2013-01-10 14:20:00,43.6,23.1,30.34,WNW,294,5.0,8.0,44,0.00,,,0.00,Wunderground v.1.15,2013-01-10 19:20:00,
2013-01-10 14:25:00,43.5,23.0,30.34,West,267,19.0,19.0,44,0.00,,,0.00,Wunderground v.1.15,2013-01-10 19:25:00,
2013-01-10 14:30:00,43.4,22.4,30.34,WSW,244,11.0,19.0,43,0.00,,,0.00,Wunderground v.1.15,2013-01-10 19:30:00,
2013-01-10 14:35:00,43.3,22.8,30.34,West,259,6.0,19.0,44,0.00,,,0.00,Wunderground v.1.15,2013-01-10 19:35:00,
2013-01-10 14:40:00,43.3,22.8,30.35,WNW,290,11.0,12.0,44,0.00,,,0.00,Wunderground v.1.15,2013-01-10 19:40:00,
2013-01-10 14:45:00,43.4,22.9,30.35,WSW,250,11.0,12.0,44,0.00,,,0.00,Wunderground v.1.15,2013-01-10 19:45:00,
2013-01-10 14:50:00,43.4,22.9,30.36,West,271,13.0,13.0,44,0.00,,,0.00,Wunderground v.1.15,2013-01-10 19:50:00,
2013-01-10 14:55:00,43.4,22.9,30.36,WNW,300,11.0,16.0,44,0.00,,,0.00,Wunderground v.1.15,2013-01-10 19:55:00,
2013-01-10 15:00:00,43.4,22.9,30.35,West,271,7.0,10.0,44,0.00,,,0.00,Wunderground v.1.15,2013-01-10 20:00:00,
2013-01-10 15:05:00,43.5,23.0,30.36,West,274,4.0,10.0,44,0.00,,,0.00,Wunderground v.1.15,2013-01-10 20:05:00,
2013-01-10 15:10:00,43.4,22.9,30.36,WSW,250,11.0,11.0,44,0.00,,,0.00,Wunderground v.1.15,2013-01-10 20:10:00,
2013-01-10 15:15:00,43.4,22.9,30.36,WSW,257,8.0,16.0,44,0.00,,,0.00,Wunderground v.1.15,2013-01-10 20:15:00,
2013-01-10 15:20:00,43.3,22.8,30.36,WNW,295,5.0,9.0,44,0.00,,,0.00,Wunderground v.1.15,2013-01-10 20:20:00,
2013-01-10 15:25:00,43.3,23.4,30.36,West,268,7.0,9.0,45,0.00,,,0.00,Wunderground v.1.15,2013-01-10 20:25:00,
2013-01-10 15:30:00,43.2,22.7,30.37,West,273,7.0,13.0,44,0.00,,,0.00,Wunderground v.1.15,2013-01-10 20:30:00,
2013-01-10 15:35:00,43.2,23.3,30.37,WSW,258,8.0,13.0,45,0.00,,,0.00,Wunderground v.1.15,2013-01-10 20:35:00,
2013-01-10 15:40:00,43.1,23.2,30.37,West,271,10.0,13.0,45,0.00,,,0.00,Wunderground v.1.15,2013-01-10 20:40:00,
2013-01-10 15:45:00,43.0,23.1,30.38,WNW,283,6.0,13.0,45,0.00,,,0.00,Wunderground v.1.15,2013-01-10 20:45:00,
2013-01-10 15:50:00,42.9,23.0,30.38,West,266,6.0,10.0,45,0.00,,,0.00,Wunderground v.1.15,2013-01-10 20:50:00,
2013-01-10 15:55:00,42.9,22.5,30.38,West,280,6.0,12.0,44,0.00,,,0.00,Wunderground v.1.15,2013-01-10 20:55:00,
2013-01-10 16:01:00,42.7,22.8,30.38,West,271,6.0,7.0,45,0.00,,,0.00,Wunderground v.1.15,2013-01-10 21:01:00,
2013-01-10 16:06:00,42.5,22.6,30.38,WNW,291,9.0,10.0,45,0.00,,,0.00,Wunderground v.1.15,2013-01-10 21:06:00,
2013-01-10 16:11:00,42.2,22.9,30.38,West,269,7.0,10.0,46,0.00,,,0.00,Wunderground v.1.15,2013-01-10 21:11:00,
2013-01-10 16:16:00,42.0,23.2,30.38,WSW,243,6.0,11.0,47,0.00,,,0.00,Wunderground v.1.15,2013-01-10 21:16:00,
2013-01-10 16:21:00,41.9,22.6,30.38,West,273,4.0,11.0,46,0.00,,,0.00,Wunderground v.1.15,2013-01-10 21:21:00,
2013-01-10 16:26:00,41.9,22.6,30.40,WNW,297,6.0,11.0,46,0.00,,,0.00,Wunderground v.1.15,2013-01-10 21:26:00,
2013-01-10 16:31:00,41.8,22.5,30.40,WNW,295,4.0,6.0,46,0.00,,,0.00,Wunderground v.1.15,2013-01-10 21:31:00,
2013-01-10 16:36:00,41.6,22.3,30.40,WNW,284,6.0,7.0,46,0.00,,,0.00,Wunderground v.1.15,2013-01-10 21:36:00,
2013-01-10 16:41:00,41.5,22.7,30.40,West,280,5.0,7.0,47,0.00,,,0.00,Wunderground v.1.15,2013-01-10 21:41:00,
2013-01-10 16:46:00,41.4,22.7,30.41,West,262,5.0,9.0,47,0.00,,,0.00,Wunderground v.1.15,2013-01-10 21:46:00,
2013-01-10 16:51:00,41.2,22.5,30.41,WNW,283,5.0,6.0,47,0.00,,,0.00,Wunderground v.1.15,2013-01-10 21:51:00,
2013-01-10 16:56:00,41.1,22.4,30.41,WNW,291,5.0,8.0,47,0.00,,,0.00,Wunderground v.1.15,2013-01-10 21:56:00,
2013-01-10 17:01:00,41.0,22.3,30.41,NW,318,3.0,5.0,47,0.00,,,0.00,Wunderground v.1.15,2013-01-10 22:01:00,
2013-01-10 17:06:00,40.7,22.0,30.41,NW,316,3.0,5.0,47,0.00,,,0.00,Wunderground v.1.15,2013-01-10 22:06:00,
2013-01-10 17:11:00,40.5,22.3,30.41,NW,316,3.0,4.0,48,0.00,,,0.00,Wunderground v.1.15,2013-01-10 22:11:00,
2013-01-10 17:16:00,40.3,22.1,30.41,WNW,294,4.0,5.0,48,0.00,,,0.00,Wunderground v.1.15,2013-01-10 22:16:00,
2013-01-10 17:21:00,40.0,22.4,30.41,WNW,283,5.0,6.0,49,0.00,,,0.00,Wunderground v.1.15,2013-01-10 22:21:00,
2013-01-10 17:26:00,39.7,22.6,30.41,WNW,290,5.0,6.0,50,0.00,,,0.00,Wunderground v.1.15,2013-01-10 22:26:00,
2013-01-10 17:31:00,39.5,22.4,30.41,WNW,292,3.0,5.0,50,0.00,,,0.00,Wunderground v.1.15,2013-01-10 22:31:00,
2013-01-10 17:36:00,39.4,22.3,30.41,NW,319,2.0,5.0,50,0.00,,,0.00,Wunderground v.1.15,2013-01-10 22:36:00,
2013-01-10 17:41:00,38.3,22.6,30.42,NW,318,0.0,2.0,53,0.00,,,0.00,Wunderground v.1.15,2013-01-10 22:41:00,
2013-01-10 17:46:00,37.4,22.7,30.42,ESE,107,0.0,2.0,55,0.00,,,0.00,Wunderground v.1.15,2013-01-10 22:46:00,
2013-01-10 17:51:00,37.7,22.5,30.42,West,281,3.0,3.0,54,0.00,,,0.00,Wunderground v.1.15,2013-01-10 22:51:00,
2013-01-10 17:56:00,38.3,22.6,30.43,WNW,292,4.0,5.0,53,0.00,,,0.00,Wunderground v.1.15,2013-01-10 22:56:00,
2013-01-10 18:01:00,38.6,22.9,30.42,NW,310,4.0,5.0,53,0.00,,,0.00,Wunderground v.1.15,2013-01-10 23:01:00,
2013-01-10 18:06:00,38.6,22.5,30.42,WNW,295,4.0,6.0,52,0.00,,,0.00,Wunderground v.1.15,2013-01-10 23:06:00,
2013-01-10 18:11:00,38.7,23.0,30.42,West,281,4.0,7.0,53,0.00,,,0.00,Wunderground v.1.15,2013-01-10 23:11:00,
2013-01-10 18:16:00,38.7,23.0,30.42,West,281,3.0,8.0,53,0.00,,,0.00,Wunderground v.1.15,2013-01-10 23:16:00,
2013-01-10 18:21:00,38.5,23.3,30.42,West,278,6.0,6.0,54,0.00,,,0.00,Wunderground v.1.15,2013-01-10 23:21:00,
2013-01-10 18:26:00,38.5,23.3,30.43,WNW,283,5.0,8.0,54,0.00,,,0.00,Wunderground v.1.15,2013-01-10 23:26:00,
2013-01-10 18:31:00,38.5,23.3,30.44,WNW,297,2.0,4.0,54,0.00,,,0.00,Wunderground v.1.15,2013-01-10 23:31:00,
2013-01-10 18:36:00,38.2,23.4,30.44,WSW,238,0.0,4.0,55,0.00,,,0.00,Wunderground v.1.15,2013-01-10 23:36:00,
2013-01-10 18:41:00,38.0,23.3,30.44,WNW,292,3.0,5.0,55,0.00,,,0.00,Wunderground v.1.15,2013-01-10 23:41:00,
2013-01-10 18:47:00,37.9,23.2,30.44,West,269,2.0,5.0,55,0.00,,,0.00,Wunderground v.1.15,2013-01-10 23:47:00,
2013-01-10 18:52:00,37.8,23.1,30.43,West,263,3.0,4.0,55,0.00,,,0.00,Wunderground v.1.15,2013-01-10 23:52:00,
2013-01-10 18:57:00,37.6,22.9,30.43,WSW,248,2.0,4.0,55,0.00,,,0.00,Wunderground v.1.15,2013-01-10 23:57:00,
2013-01-10 19:02:00,36.9,23.1,30.44,SSW,212,0.0,2.0,57,0.00,,,0.00,Wunderground v.1.15,2013-01-11 00:02:00,
2013-01-10 19:07:00,35.7,22.8,30.44,SSW,212,0.0,2.0,59,0.00,,,0.00,Wunderground v.1.15,2013-01-11 00:07:00,
2013-01-10 19:12:00,35.8,22.9,30.44,West,259,0.0,0.0,59,0.00,,,0.00,Wunderground v.1.15,2013-01-11 00:12:00,
2013-01-10 19:17:00,35.6,22.7,30.44,West,267,4.0,4.0,59,0.00,,,0.00,Wunderground v.1.15,2013-01-11 00:17:00,
2013-01-10 19:22:00,35.7,23.2,30.44,West,266,3.0,4.0,60,0.00,,,0.00,Wunderground v.1.15,2013-01-11 00:22:00,
2013-01-10 19:27:00,35.9,23.4,30.45,SW,217,0.0,4.0,60,0.00,,,0.00,Wunderground v.1.15,2013-01-11 00:27:00,
2013-01-10 19:32:00,34.7,22.6,30.45,South,176,0.0,2.0,61,0.00,,,0.00,Wunderground v.1.15,2013-01-11 00:32:00,
2013-01-10 19:37:00,33.9,22.6,30.45,SSE,155,0.0,2.0,63,0.00,,,0.00,Wunderground v.1.15,2013-01-11 00:37:00,
2013-01-10 19:42:00,34.0,23.1,30.45,West,262,0.0,0.0,64,0.00,,,0.00,Wunderground v.1.15,2013-01-11 00:42:00,
2013-01-10 19:47:00,32.4,23.0,30.45,WSW,257,4.0,5.0,68,0.00,,,0.00,Wunderground v.1.15,2013-01-11 00:47:00,
2013-01-10 19:52:00,32.7,23.3,30.46,ENE,70,0.0,3.0,68,0.00,,,0.00,Wunderground v.1.15,2013-01-11 00:52:00,
2013-01-10 19:57:00,31.4,22.7,30.46,ENE,68,0.0,3.0,70,0.00,,,0.00,Wunderground v.1.15,2013-01-11 00:57:00,
2013-01-10 20:02:00,31.2,22.5,30.46,ENE,68,0.0,0.0,70,0.00,,,0.00,Wunderground v.1.15,2013-01-11 01:02:00,
2013-01-10 20:07:00,31.6,22.9,30.46,West,280,2.0,3.0,70,0.00,,,0.00,Wunderground v.1.15,2013-01-11 01:07:00,
2013-01-10 20:12:00,32.5,23.1,30.46,WNW,295,2.0,2.0,68,0.00,,,0.00,Wunderground v.1.15,2013-01-11 01:12:00,
2013-01-10 20:17:00,33.7,23.2,30.46,West,280,3.0,4.0,65,0.00,,,0.00,Wunderground v.1.15,2013-01-11 01:17:00,
2013-01-10 20:22:00,34.1,23.2,30.46,WNW,283,0.0,2.0,64,0.00,,,0.00,Wunderground v.1.15,2013-01-11 01:22:00,
2013-01-10 20:27:00,33.7,23.2,30.46,WSW,257,4.0,4.0,65,0.00,,,0.00,Wunderground v.1.15,2013-01-11 01:27:00,
2013-01-10 20:32:00,34.0,23.1,30.47,West,259,1.0,4.0,64,0.00,,,0.00,Wunderground v.1.15,2013-01-11 01:32:00,
2013-01-10 20:37:00,32.9,22.8,30.47,East,79,0.0,4.0,66,0.00,,,0.00,Wunderground v.1.15,2013-01-11 01:37:00,
2013-01-10 20:43:00,33.1,23.0,30.47,West,264,2.0,3.0,66,0.00,,,0.00,Wunderground v.1.15,2013-01-11 01:43:00,
2013-01-10 20:48:00,33.8,23.3,30.47,WSW,257,4.0,4.0,65,0.00,,,0.00,Wunderground v.1.15,2013-01-11 01:48:00,
2013-01-10 20:53:00,33.8,23.3,30.47,WSW,258,5.0,6.0,65,0.00,,,0.00,Wunderground v.1.15,2013-01-11 01:53:00,
2013-01-10 20:58:00,34.1,23.2,30.48,West,270,4.0,6.0,64,0.00,,,0.00,Wunderground v.1.15,2013-01-11 01:58:00,
2013-01-10 21:03:00,34.1,23.2,30.48,WSW,250,2.0,4.0,64,0.00,,,0.00,Wunderground v.1.15,2013-01-11 02:03:00,
2013-01-10 21:08:00,33.3,22.8,30.49,East,90,2.0,4.0,65,0.00,,,0.00,Wunderground v.1.15,2013-01-11 02:08:00,
2013-01-10 21:13:00,32.8,23.0,30.49,WSW,247,4.0,4.0,67,0.00,,,0.00,Wunderground v.1.15,2013-01-11 02:13:00,
2013-01-10 21:18:00,33.3,23.2,30.49,SW,229,1.0,4.0,66,0.00,,,0.00,Wunderground v.1.15,2013-01-11 02:18:00,
2013-01-10 21:23:00,33.1,23.0,30.48,West,259,3.0,3.0,66,0.00,,,0.00,Wunderground v.1.15,2013-01-11 02:23:00,
2013-01-10 21:28:00,32.6,23.2,30.49,ESE,107,0.0,4.0,68,0.00,,,0.00,Wunderground v.1.15,2013-01-11 02:28:00,
2013-01-10 21:33:00,32.1,23.1,30.49,WSW,245,3.0,3.0,69,0.00,,,0.00,Wunderground v.1.15,2013-01-11 02:33:00,
2013-01-10 21:38:00,32.6,23.2,30.49,WSW,256,0.0,4.0,68,0.00,,,0.00,Wunderground v.1.15,2013-01-11 02:38:00,
2013-01-10 21:43:00,32.6,23.2,30.49,SSE,148,0.0,2.0,68,0.00,,,0.00,Wunderground v.1.15,2013-01-11 02:43:00,
2013-01-10 21:48:00,32.0,23.0,30.50,East,84,0.0,2.0,69,0.00,,,0.00,Wunderground v.1.15,2013-01-11 02:48:00,
2013-01-10 21:53:00,31.7,22.7,30.50,East,85,0.0,0.0,69,0.00,,,0.00,Wunderground v.1.15,2013-01-11 02:53:00,
2013-01-10 21:58:00,31.7,22.7,30.50,East,84,0.0,0.0,69,0.00,,,0.00,Wunderground v.1.15,2013-01-11 02:58:00,
2013-01-10 22:03:00,31.7,22.7,30.49,WNW,288,0.0,0.0,69,0.00,,,0.00,Wunderground v.1.15,2013-01-11 03:03:00,
2013-01-10 22:08:00,31.0,23.0,30.49,West,262,2.0,3.0,72,0.00,,,0.00,Wunderground v.1.15,2013-01-11 03:08:00,
2013-01-10 22:13:00,30.2,22.6,30.49,SW,220,0.0,3.0,73,0.00,,,0.00,Wunderground v.1.15,2013-01-11 03:13:00,
2013-01-10 22:18:00,29.6,22.6,30.49,ESE,105,0.0,3.0,75,0.00,,,0.00,Wunderground v.1.15,2013-01-11 03:18:00,
2013-01-10 22:23:00,29.7,22.4,30.50,ESE,110,1.0,3.0,74,0.00,,,0.00,Wunderground v.1.15,2013-01-11 03:23:00,
2013-01-10 22:29:00,30.3,22.7,30.50,East,86,2.0,3.0,73,0.00,,,0.00,Wunderground v.1.15,2013-01-11 03:29:00,
2013-01-10 22:34:00,30.1,22.5,30.50,ENE,70,0.0,2.0,73,0.00,,,0.00,Wunderground v.1.15,2013-01-11 03:34:00,
2013-01-10 22:39:00,29.9,22.6,30.50,NW,325,0.0,2.0,74,0.00,,,0.00,Wunderground v.1.15,2013-01-11 03:39:00,
2013-01-10 22:44:00,29.4,22.8,30.50,WSW,257,1.0,1.0,76,0.00,,,0.00,Wunderground v.1.15,2013-01-11 03:44:00,
2013-01-10 22:49:00,29.1,22.5,30.49,WSW,238,0.0,1.0,76,0.00,,,0.00,Wunderground v.1.15,2013-01-11 03:49:00,
2013-01-10 22:54:00,28.8,22.2,30.50,ENE,74,0.0,1.0,76,0.00,,,0.00,Wunderground v.1.15,2013-01-11 03:54:00,
2013-01-10 22:59:00,28.8,22.5,30.50,East,96,2.0,2.0,77,0.00,,,0.00,Wunderground v.1.15,2013-01-11 03:59:00,
2013-01-10 23:04:00,29.0,22.4,30.50,ESE,110,0.0,2.0,76,0.00,,,0.00,Wunderground v.1.15,2013-01-11 04:04:00,
2013-01-10 23:09:00,29.3,22.7,30.50,ESE,110,0.0,2.0,76,0.00,,,0.00,Wunderground v.1.15,2013-01-11 04:09:00,
2013-01-10 23:14:00,29.2,22.6,30.49,ESE,110,0.0,1.0,76,0.00,,,0.00,Wunderground v.1.15,2013-01-11 04:14:00,
2013-01-10 23:19:00,28.7,22.7,30.49,ENE,77,2.0,2.0,78,0.00,,,0.00,Wunderground v.1.15,2013-01-11 04:19:00,
2013-01-10 23:24:00,28.5,22.2,30.49,East,82,0.0,2.0,77,0.00,,,0.00,Wunderground v.1.15,2013-01-11 04:24:00,
2013-01-10 23:29:00,28.6,22.3,30.49,East,82,0.0,2.0,77,0.00,,,0.00,Wunderground v.1.15,2013-01-11 04:29:00,
2013-01-10 23:34:00,28.3,22.3,30.49,East,91,0.0,0.0,78,0.00,,,0.00,Wunderground v.1.15,2013-01-11 04:34:00,
2013-01-10 23:39:00,27.6,22.2,30.49,East,91,0.0,0.0,80,0.00,,,0.00,Wunderground v.1.15,2013-01-11 04:39:00,
2013-01-10 23:44:00,27.2,22.1,30.49,East,97,0.0,0.0,81,0.00,,,0.00,Wunderground v.1.15,2013-01-11 04:44:00,
2013-01-10 23:49:00,26.9,22.1,30.49,East,97,0.0,0.0,82,0.00,,,0.00,Wunderground v.1.15,2013-01-11 04:49:00,
2013-01-10 23:54:00,26.9,22.1,30.49,East,89,0.0,2.0,82,0.00,,,0.00,Wunderground v.1.15,2013-01-11 04:54:00,
2013-01-10 23:59:00,26.9,22.1,30.49,ENE,77,0.0,2.0,82,0.00,,,0.00,Wunderground v.1.15,2013-01-11 04:59:00,